Weather Roundup
Issued by NWS Springfield, MO

Home | Current Version | Previous Version | Text Only | Print | Product List | Glossary On
Versions: 1 2 3 4 5 6 7 8 9 10 11 12 13 14 15 16 17 18 19 20 21 22 23 24 25 26 27 28 29 30 31 32 33 34 35 36 37 38 39 40 41 42 43 44 45 46 47 48 49 50
000
NZUS99 KSGF 221407
HRRSGF

HOURLY WEATHER
NATIONAL WEATHER SERVICE SPRINGFIELD MO
800 AM CST SAT NOV 22 2014

......SGF CWA......

CITY           SKY/WX    TMP DP  RH WIND       PRES   REMARKS
SPRINGFIELD    CLOUDY    51  45  79 S13       30.07S
JOPLIN         CLOUDY    57  50  77 S17G24    30.04S
WEST PLAINS    CLOUDY    48  44  86 S8        30.15S
ROLLA          CLOUDY    50  44  80 S14       30.07S
OSAGE BEACH    CLOUDY    48  43  81 S8        30.07R
BRANSON        CLOUDY    54  48  82 S6        30.11R

......SURROUNDING SGF CWA......

CITY           SKY/WX    TMP DP  RH WIND       PRES   REMARKS
CHANUTE        CLOUDY    54  53  97 S14       30.01R FOG
PARSONS        CLOUDY    56  53  90 S14       30.02S
COFFEYVILLE    CLOUDY    56  52  86 S16       30.01F
EMPORIA        FOG       48  48 100 S6        29.95S VSB<1/4
GROVE OK       CLOUDY    57  50  77 S9        30.07S
ROGERS AR      CLOUDY    54  49  83 SE9       30.10R
SILOAM SPRINGS CLOUDY    54  46  76 S7        30.10S
HARRISON AR    CLOUDY    54  48  80 S8        30.12R
NEAR YELLVILLE CLOUDY    48  43  81 S3        30.13S

......KANSAS AND MISSOURI......

CITY           SKY/WX    TMP DP  RH WIND       PRES   REMARKS
KANSAS CTY INT DRZL/FOG  53  53 100 SW13      29.95S VSB 1/4
DOWNTOWN KC    CLOUDY    55  53  93 SW8       29.95F FOG
COLUMBIA       PTCLDY    51  45  79 S14       30.04S
SEDALIA        CLOUDY    54  47  77 S14       30.02S
ST JOSEPH      FOG       43  43 100 S5        29.94F VSB 1/4
ST LOUIS       PTSUNNY   50  42  74 S8        30.10S
SPIRIT OF STL  CLOUDY    51  43  74 S6        30.09S
KIRKSVILLE     CLOUDY    51  47  86 S12       29.96F
WICHITA        DRZL/FOG  45  44  97 SW5       29.96S VSB 1/8
TOPEKA         FOG       45  44  97 CALM      29.95S VSB 1/4
OLATHE         FOG       53  53 100 S12G20    29.96S VSB 3/4

......TENNESSEE......

CITY           SKY/WX    TMP DP  RH WIND       PRES   REMARKS
MEMPHIS        CLOUDY    56  43  61 S13       30.26F
NASHVILLE      PTSUNNY   50  29  44 S13       30.35S

......ARKANSAS.......

CITY           SKY/WX    TMP DP  RH WIND       PRES   REMARKS
FAYETTEVILLE   LGT RAIN  51  50  96 S12       30.12R
FT SMITH       CLOUDY    51  48  89 NE6       30.13R
LITTLE ROCK    PTSUNNY   52  49  89 CALM      30.20S

......OKLAHOMA.......

CITY           SKY/WX    TMP DP  RH WIND       PRES   REMARKS
TULSA          CLOUDY    57  54  89 SE12      30.02F
PONCA CITY     CLOUDY    59  57  93 S12G20    29.97R
MCALESTER      LGT RAIN  56  53  90 SE6       30.09S
OKLAHOMA CITY  TSTM      59  56  89 SE25G32   30.00S FOG

......IOWA............

CITY           SKY/WX    TMP DP  RH WIND       PRES   REMARKS
DES MOINES     CLOUDY    41  39  93 SW9       29.90S FOG
QUAD CITIES    CLOUDY    43  40  89 S7        29.96F FOG

......ILLINOIS........

CITY           SKY/WX    TMP DP  RH WIND       PRES   REMARKS
QUINCY         CLOUDY    48  43  82 S13       30.00F
CHICAGO        FOG       37  35  92 SW12      30.01F VSB 1   WCI  29



USA.gov is the U.S. government's official web portal to all federal, state and local government web resources and services.